Location: *
(50.2903°S, 172.5375°W)
Time: 02:57:50
(UTC+00:00)

Resurs 1-4 Rocket - Pass Details

Date: 01 March 2020
Orbit: 800 x 814 km, 98.6° (Epoch: 04 April)

Event Time Altitude Azimuth Distance (km) Brightness Sun altitude
Exits shadow 12:32:10 41° 222° (SW) 1,178 3.1 -31.4°
Drops below altitude 10° 12:35:45 10° 201° (SSW) 2,418 5.2 -31.3°
Sets 12:38:09 0° 197° (SSW) 3,355 6.1 -31.2°
